Kissimmee, FL

2:11 PM EST on November 12, 2019 (GMT -0500)
Kissimmee Municipal

Weather History for KISM - August, 2019

Change the Weather History Date:

Tuesday, August 13, 2019

  Actual Average Record
Temperature  
Mean Temperature 81 °F -  
Max Temperature 87 °F 90 °F 95 °F (1963)
Min Temperature 75 °F 72 °F 60 °F (1963)
Cooling Degree Days 16    
Growing Degree Days 31 (Base 50)    
Moisture  
Dew Point 78 °F    
Average Humidity 91    
Maximum Humidity 100    
Minimum Humidity 75    
Precipitation  
Precipitation 0.00 in - - ()
Sea Level Pressure  
Sea Level Pressure 29.94 in    
Wind  
Wind Speed 4 mph (SSW)    
Max Wind Speed 13 mph    
Max Gust Speed 17 mph    
Visibility 8 miles    
Events Fog , Thunderstorm    
Averages and records for this station are not official NWS values.
T = Trace of Precipitation, MM = Missing Value Source: NWS Daily Summary

Daily Weather History Graph

Daily Weather History Graph

Search for Another Location

Airport or City:

Astronomy

Aug. 13, 2019 Rise Set
Actual Time 6:54 AM EDT 8:06 PM EDT
Civil Twilight 6:29 AM EDT 8:31 PM EDT
Nautical Twilight 6:00 AM EDT 9:00 PM EDT
Astronomical Twilight 5:29 AM EDT 9:31 PM EDT
Moon 7:11 PM EDT (8/13) 5:05 AM EDT (8/13)
Length of Visible Light 14h 01m
Length of Day
13h 12m
Waxing Gibbous, 97% of the Moon is Illuminated
Aug 13
Waxing Gibbous
Aug 15
Full
Aug 23
Last Quarter
Aug 30
New
Sep 5
First Quarter

Hourly Weather History & Observations

Time (EDT) Temp. Heat Index Dew Point Humidity Pressure Visibility Wind Dir Wind Speed Gust Speed Precip Events Conditions
12:56 AM 75.9 °F - 75.9 °F 100% 29.94 in 10.0 mi SSE 3.5 mph - N/A   Clear
1:56 AM 75.9 °F - 75.9 °F 100% 29.94 in 10.0 mi South 5.8 mph - N/A   Clear
2:56 AM 75.9 °F - 75.9 °F 100% 29.93 in 10.0 mi SSW 3.5 mph - N/A   Scattered Clouds
3:56 AM 77.0 °F - 75.9 °F 96% 29.91 in 10.0 mi Calm Calm - N/A   Clear
4:56 AM 77.0 °F - 75.9 °F 96% 29.91 in 9.0 mi Calm Calm - N/A   Clear
5:25 AM 77.0 °F - 75.2 °F 94% 29.90 in 8.0 mi Calm Calm - N/A   Scattered Clouds
5:34 AM 77.0 °F - 75.2 °F 94% 29.91 in 7.0 mi Calm Calm - N/A   Mostly Cloudy
5:46 AM 77.0 °F - 75.2 °F 94% 29.91 in 1.8 mi SSW 3.5 mph - N/A   Overcast
5:56 AM 77.0 °F - 77.0 °F 100% 29.92 in 0.8 mi South 3.5 mph - N/A   Overcast
6:13 AM 77.0 °F - 77.0 °F 100% 29.92 in 0.5 mi South 3.5 mph - N/A Fog Fog
6:52 AM 77.0 °F - 77.0 °F 100% 29.94 in 0.2 mi Calm Calm - N/A Fog Fog
6:56 AM 77.0 °F - 77.0 °F 100% 29.94 in 0.2 mi Calm Calm - N/A Fog Fog
7:31 AM 77.0 °F - 77.0 °F 100% 29.95 in 0.5 mi SSW 3.5 mph - N/A Fog Fog
7:38 AM 78.8 °F - 77.0 °F 94% 29.95 in 1.0 mi SSW 4.6 mph - N/A   Overcast
7:48 AM 78.8 °F - 77.0 °F 94% 29.95 in 0.5 mi SSW 3.5 mph - N/A Fog Fog
7:56 AM 78.1 °F - 78.1 °F 100% 29.95 in 0.5 mi South 4.6 mph - N/A Fog Fog
8:15 AM 78.8 °F - 78.8 °F 100% 29.95 in 0.8 mi Calm Calm - N/A   Overcast
8:24 AM 78.8 °F - 78.8 °F 100% 29.95 in 1.2 mi SSW 4.6 mph - N/A   Overcast
8:56 AM 78.1 °F - 78.1 °F 100% 29.96 in 2.5 mi Calm Calm - N/A   Overcast
9:23 AM 78.8 °F - 78.8 °F 100% 29.95 in 4.0 mi Calm Calm - N/A   Overcast
9:56 AM 79.0 °F - 78.1 °F 97% 29.96 in 7.0 mi Calm Calm - N/A   Overcast
10:54 AM 82.4 °F 92.4 °F 78.8 °F 89% 29.97 in 10.0 mi Variable 3.5 mph - N/A   Overcast
10:56 AM 82.9 °F 93.8 °F 79.0 °F 88% 29.97 in 10.0 mi ESE 4.6 mph - N/A   Overcast
11:51 AM 84.2 °F 96.1 °F 78.8 °F 84% 29.96 in 10.0 mi Calm Calm - N/A Thunderstorm Mostly Cloudy
11:56 AM 84.9 °F 97.5 °F 79.0 °F 82% 29.96 in 10.0 mi Calm Calm - N/A Thunderstorm Mostly Cloudy
11:58 AM 84.2 °F 96.1 °F 78.8 °F 84% 29.96 in 10.0 mi Calm Calm - N/A   Partly Cloudy
12:00 PM 86.0 °F 99.3 °F 78.8 °F 79% 29.96 in 10.0 mi Calm Calm - N/A Thunderstorm Mostly Cloudy
12:10 PM 87.8 °F 102.5 °F 78.8 °F 75% 29.96 in 10.0 mi Calm Calm - N/A   Mostly Cloudy
12:53 PM 84.2 °F 94.1 °F 77.0 °F 79% 29.95 in 10.0 mi WSW 5.8 mph - N/A Thunderstorm Scattered Clouds
12:56 PM 84.0 °F 94.8 °F 78.1 °F 82% 29.96 in 10.0 mi West 4.6 mph - N/A Thunderstorm Scattered Clouds
1:14 PM 86.0 °F 99.3 °F 78.8 °F 79% 29.95 in 10.0 mi WSW 5.8 mph - N/A   Mostly Cloudy
1:30 PM 86.0 °F 101.9 °F 80.6 °F 84% 29.94 in 10.0 mi West 9.2 mph 17.3 mph N/A Thunderstorm Overcast
1:56 PM 84.9 °F 97.5 °F 79.0 °F 82% 29.94 in 10.0 mi WSW 12.7 mph - N/A Thunderstorm Partly Cloudy
2:09 PM 84.2 °F 94.1 °F 77.0 °F 79% 29.93 in 10.0 mi WSW 11.5 mph - N/A   Clear
2:56 PM 84.0 °F 93.7 °F 77.0 °F 79% 29.91 in 10.0 mi West 11.5 mph - N/A   Mostly Cloudy
3:12 PM 84.2 °F 96.1 °F 78.8 °F 84% 29.90 in 10.0 mi WSW 9.2 mph - N/A Thunderstorm Scattered Clouds
3:27 PM 82.4 °F 92.4 °F 78.8 °F 89% 29.91 in 10.0 mi SSW 5.8 mph - N/A   Clear
3:56 PM 82.9 °F 92.8 °F 78.1 °F 85% 29.91 in 10.0 mi SW 8.1 mph - N/A   Clear
4:56 PM 84.9 °F 97.5 °F 79.0 °F 82% 29.93 in 10.0 mi SSW 6.9 mph - N/A   Scattered Clouds
5:43 PM 84.2 °F 96.1 °F 78.8 °F 84% 29.92 in 10.0 mi SSW 6.9 mph - N/A Thunderstorm Scattered Clouds
5:47 PM 84.2 °F 96.1 °F 78.8 °F 84% 29.91 in 10.0 mi SSW 9.2 mph - N/A Thunderstorm Scattered Clouds
5:56 PM 84.0 °F 94.8 °F 78.1 °F 82% 29.91 in 10.0 mi SW 6.9 mph - N/A   Scattered Clouds
6:56 PM 82.9 °F 92.8 °F 78.1 °F 85% 29.91 in 10.0 mi SSW 3.5 mph - N/A   Clear
7:56 PM 82.0 °F 91.0 °F 78.1 °F 88% 29.94 in 10.0 mi South 4.6 mph - N/A   Mostly Cloudy
8:56 PM 81.0 °F 88.6 °F 78.1 °F 91% 29.95 in 10.0 mi South 8.1 mph - N/A   Mostly Cloudy
9:03 PM 80.6 °F 88.1 °F 78.8 °F 94% 29.94 in 10.0 mi South 8.1 mph - N/A   Partly Cloudy
9:17 PM 80.6 °F 88.1 °F 78.8 °F 94% 29.94 in 10.0 mi South 6.9 mph - N/A   Mostly Cloudy
9:39 PM 80.6 °F 88.1 °F 78.8 °F 94% 29.95 in 10.0 mi SSW 4.6 mph - N/A   Scattered Clouds
9:56 PM 80.1 °F 86.4 °F 78.1 °F 94% 29.96 in 10.0 mi SW 4.6 mph - N/A   Clear
10:56 PM 79.0 °F - 78.1 °F 97% 29.97 in 10.0 mi SSW 4.6 mph - N/A   Clear
11:56 PM 79.0 °F - 78.1 °F 97% 29.96 in 10.0 mi SW 6.9 mph - N/A   Clear